Regional Weather Roundup
Issued by NWS Melbourne, FL

Home | Current Version | Previous Version | Text Only | Print | Product List | Glossary On
Versions: 1 2 3 4 5 6 7 8 9 10 11 12 13 14 15 16 17 18 19 20 21 22 23 24 25 26 27 28
000
ASUS42 KMLB 310511
RWRMLB
HOURLY WEATHER ROUNDUP AROUND FLORIDA
NATIONAL WEATHER SERVICE OFFICE MELBOURNE FL
100 AM EDT SAT JUL 31 2021

CITY           SKY/WX    TMP DP  RH WIND       PRES   REMARKS
MELBOURNE      MOCLDY    81  76  84 SW5       30.05F
FORT PIERCE    PTCLDY    80  74  81 CALM      30.07S
ORLANDO INTL   MOCLDY    83  75  77 SW5       30.06F
DAYTONA BEACH  PTCLDY    79  75  87 CALM      30.05S
VERO BEACH     PTCLDY    81  73  76 S6        30.07S
$$
...ELSEWHERE ACROSS CENTRAL FLORIDA...

CITY           SKY/WX    TMP DP  RH WIND       PRES   REMARKS
PATRICK AFB    MOCLDY    82  81  96 SW7       30.04S
KSC            MOCLDY    77  75  94 CALM      30.04S
CAPE CANAVERAL MOCLDY    79  76  92 SW5       30.04S
SEBASTIAN      CLOUDY    81  75  81 SW5       30.07S
ORLANDO EXEC   MOCLDY    82  75  79 SW6       30.06F
LEESBURG       MOCLDY    81  75  82 SW5       30.07S
SANFORD        MOCLDY    81  74  79 SW3       30.05F
DELAND         PTCLDY    80  76  86 W5        30.06S
WINTER HAVEN   MOCLDY    80  74  81 SW3       30.09S
KISSIMMEE      MOCLDY   N/A N/A N/A W6        30.08S
OKEECHOBEE     CLOUDY   N/A N/A N/A MISG      30.07F
TAMPA          MOCLDY    84  76  76 SW6       30.08S
$$
...NORTHERN FLORIDA...

CITY           SKY/WX    TMP DP  RH WIND       PRES   REMARKS
ST AUGUSTINE   CLEAR     80  77  90 SW6       30.05R
OCALA          PTCLDY    78  77  96 CALM      30.06S
GAINESVILLE    PTCLDY    77  76  96 CALM      30.08R
JACKSONVILLE   PTCLDY    79  75  87 SW7       30.01F
TALLAHASSEE    CLEAR     80  76  87 CALM      30.02F
$$
...ALONG THE SOUTHEAST COAST TO THE KEYS...

CITY           SKY/WX    TMP DP  RH WIND       PRES   REMARKS
STUART         MOCLDY    82  75  78 S6        30.08F
WEST PALM BCH  MOCLDY    83  76  79 S5        30.08F
MIAMI          PTCLDY    84  76  76 CALM      30.09F
KEY WEST       PTCLDY    85  75  72 E12       30.08S
$$
...MARINE REPORTS...

STATION/POSITION TIME  TEMP    WIND        PRES    WAVE   SWELL
                       AIR SEA DIR/SP/G            HT/PER HT/PER
                 (UTC) (F)     (DEG/KT/KT) (MB)    (FT/S) (FT/S)
ST AUGUSTINE FP  0500   81 85  240/  6/  7 1017.5R
20NM E CAPE CANA 0450   84     210/ 10/ 12 1016.7F   3/ 4   2/ 9
120 E NEW SMYRNA 0450   84     190/ 14/ 17 1017.8F
TRIDENT PIER     0424   81 84  180/  2/  2 1018.7
4NM E PORT CANAV 0426      83                N/A     2/ 4
6NM NE FPR INLET 0456      83                N/A     2/ 4
SETTLEMENT PT GB 0500   84     170/  9/ 13 1018.8F
$$



USA.gov is the U.S. government's official web portal to all federal, state and local government web resources and services.